STARLINK-5217, 54098

Orbit data source: Space-Track

STARLINK-5217, 54098 is a payload satellite owned by SpaceX/Seattle (US) in LEO that was launched on Thu, 20 Oct 2022 UTC via an FALCON 9 launch vehicle from the Air Force Eastern Test Range (AFETR). Payload-class satellites include a variety of spacecraft equipped with specific instruments for various scientific and technological missions. These include communications satellites like Starlink; space stations such as the ISS; scientific satellites like the Hubble; Earth observation satellites from companies like Planet Labs, Umbra, and HawkEye 360; GPS; miniature CubeSats for education and research; and military/defense satellites.

Loading next visibility...
Identifier
54098, 2022-136AZ
Orbit
LEO
Country
Flag of USUS
Related business
Manufacturer
SpaceX/Seattle
Mission
Operational Commercial Communications
Bus & Motor
STARLINK, Unknown motor
Mass
305 kg wet, ~290 kg dry
Launch date (UTC)
2022-10-20 (4 years ago)
Launch vehicle
FALCON 9
Launch site
Air Force Eastern Test Range (AFETR)
Object type
Payload
Rocket body
Debris
Shape & HBR
Box + 1 Pan, 10.1 m
Radar Cross Section
13.562 m², Large (>1 m²)

Expand to show TLE details & history
Last TLE update: 2 days ago

TLE from 2 days ago
0 STARLINK-5217
1 54098U 22136AZ  26171.45819061 -.00001446  00000-0 -72786-4 0  9992
2 54098  53.1585 232.9955 0001325  86.9047 273.2096 15.08826113202496
Epoch: 2026-06-20T10:59Z
TLE epoch observation values (Epoch: 2026-06-20T10:59:47.668Z)
Latitude
-0.00003°
Longitude
159.37433°
Altitude
540.626 km
Speed
7.593 km/s
True Right ascension
15h 31m 58s
True Declination
0° 00' 00"
Sunlit
Object was in full shadow at epoch
Visualization orbit readout
Latitude
Unknown
Longitude
Unknown
Altitude
Unknown
Speed
Unknown
Apparent Right ascension
Unknown
Apparent Declination
Unknown
Sunlit
N/A
Visualization observer readout
Local Sidereal Time
21:39:02
Azimuth
Unknown
Elevation
Unknown
Doppler factor
Unknown
Orbital elements
Apogee altitude
540.957 km
Perigee altitude
539.124 km
Semi-major axis
6,918.177 km
Eccentricity
0.00013
Inclination
53.1585°
RAAN
232.9955°
Arg. of periapsis
86.9047°
True anomaly
273.19444°
Mean anomaly
273.2096°
Eccentric anomaly
273.20202°
Mean motion
3.77186 °/min
Orbital period
95.44 mins
BSTAR
-0.000072786
Loading maneuver chart data...
Computing Atmospheric mass density...
Loading historical data...
Loading historical data...
Loading historical data...
Loading historical data...
Loading historical data...
Loading historical data...
Loading historical data...

Documentation

Showing up to 5 results
|